Weather History for China Lake, CA

Change the Weather History Date:

Thursday, April 17, 2014

  Actual Average Record
Temperature  
Mean Temperature 70 °F -  
Max Temperature 89 °F 73 °F 89 °F (2011)
Min Temperature 52 °F 48 °F 37 °F (2006)
Cooling Degree Days 6    
Growing Degree Days 20 (Base 50)    
Moisture  
Dew Point 32 °F    
Average Humidity 25    
Maximum Humidity 45    
Minimum Humidity 12    
Precipitation  
Precipitation 0.00 in - - ()
Sea Level Pressure  
Sea Level Pressure 29.77 in    
Wind  
Wind Speed 7 mph (SSW)    
Max Wind Speed 21 mph    
Max Gust Speed 28 mph    
Visibility 10 miles    
Events      
Averages and records for this station are not official NWS values.
T = Trace of Precipitation, MM = Missing Value Source: NWS Daily Summary

Daily Weather History Graph

Daily Weather History Graph

Search for Another Location

Airport:

Trip Planner

Search our weather history database for the weather conditions in past years. The results will help you decide how hot, cold, wet, or windy it might be!

Date:

Astronomy

Apr. 17, 2014 Rise Set
Actual Time 6:15 AM PDT 7:25 PM PDT
Civil Twilight 5:48 AM PDT 7:52 PM PDT
Nautical Twilight 5:17 AM PDT 8:23 PM PDT
Astronomical Twilight 4:44 AM PDT 8:56 PM PDT
Moon 10:12 PM PDT (4/17) 7:54 AM PDT (4/17)
Length of Visible Light 14h 03m
Length of Day
13h 10m
Waning Gibbous, 93% of the Moon is Illuminated
Apr 17
Waning Gibbous
Apr 22
Last Quarter
Apr 28
New
May 6
First Quarter
May 14
Full

Hourly Weather History & Observations

Time (PDT) Temp. Dew Point Humidity Pressure Visibility Wind Dir Wind Speed Gust Speed Precip Events Conditions
12:56 AM 62.1 °F 30.9 °F 31% 29.75 in 10.0 mi SSW 6.9 mph - N/A   Unknown
1:56 AM 63.0 °F 33.1 °F 33% 29.76 in 10.0 mi SSW 9.2 mph - N/A   Unknown
2:56 AM 61.0 °F 33.1 °F 35% 29.76 in 10.0 mi SW 3.5 mph - N/A   Unknown
3:56 AM 57.0 °F 30.9 °F 37% 29.76 in 10.0 mi Calm Calm - N/A   Unknown
4:56 AM 54.0 °F 30.9 °F 41% 29.78 in 10.0 mi Calm Calm - N/A   Unknown
5:56 AM 52.0 °F 30.9 °F 45% 29.78 in 10.0 mi SSW 5.8 mph - N/A   Partly Cloudy
6:56 AM 55.0 °F 32.0 °F 42% 29.82 in 10.0 mi SW 5.8 mph - N/A   Partly Cloudy
7:56 AM 63.0 °F 33.1 °F 33% 29.84 in 10.0 mi Calm Calm - N/A   Scattered Clouds
8:56 AM 66.9 °F 33.1 °F 28% 29.84 in 10.0 mi Calm Calm - N/A   Scattered Clouds
9:56 AM 71.1 °F 34.0 °F 26% 29.83 in 10.0 mi SSW 3.5 mph - N/A   Mostly Cloudy
10:56 AM 78.1 °F 34.0 °F 20% 29.83 in 10.0 mi Variable 3.5 mph - N/A   Mostly Cloudy
11:56 AM 82.0 °F 34.0 °F 18% 29.81 in 10.0 mi Variable 6.9 mph - N/A   Mostly Cloudy
12:56 PM 84.0 °F 32.0 °F 15% 29.79 in 10.0 mi Variable 4.6 mph - N/A   Mostly Cloudy
1:56 PM 87.1 °F 30.0 °F 13% 29.76 in 10.0 mi South 13.8 mph 20.7 mph N/A   Mostly Cloudy
2:56 PM 89.1 °F 30.0 °F 12% 29.74 in 10.0 mi South 13.8 mph 24.2 mph N/A   Mostly Cloudy
3:56 PM 86.0 °F 28.0 °F 12% 29.73 in 10.0 mi South 20.7 mph 27.6 mph N/A   Mostly Cloudy
4:56 PM 86.0 °F 30.0 °F 13% 29.72 in 10.0 mi South 15.0 mph 23.0 mph N/A   Mostly Cloudy
5:56 PM 84.9 °F 28.0 °F 13% 29.72 in 10.0 mi SSW 17.3 mph 26.5 mph N/A   Mostly Cloudy
6:56 PM 82.0 °F 33.1 °F 17% 29.72 in 10.0 mi SSW 17.3 mph - N/A   Overcast
7:56 PM 78.1 °F 34.0 °F 20% 29.71 in 10.0 mi SSW 12.7 mph - N/A   Mostly Cloudy
8:56 PM 77.0 °F 33.1 °F 20% 29.74 in 10.0 mi SSW 13.8 mph - N/A   Overcast
9:56 PM 73.9 °F 33.1 °F 22% 29.74 in 10.0 mi South 9.2 mph - N/A   Overcast
10:56 PM 73.9 °F 36.0 °F 25% 29.73 in 10.0 mi South 16.1 mph - N/A   Overcast
11:56 PM 70.0 °F 37.9 °F 31% 29.73 in 10.0 mi SSW 10.4 mph - N/A   Unknown